| time (UTC) | temp F | wind direction | speed knots | gust knots | rain 1hr in | rain 24hr in | rain mn in | humidity % | barometer mb |
| 20260503222424 | 49 | 225 | 11.3 | 16.5 | 0.00 | 0.00 | 0.00 | 67 | 1007.5 |
| 20260503221924 | 49 | 0 | 10.4 | 16.5 | 0.00 | 0.00 | 0.00 | 69 | 1007.6 |
| 20260503220924 | 49 | 199 | 11.3 | 14.8 | 0.00 | 0.00 | 0.00 | 67 | 1007.6 |
| 20260503220424 | 49 | 203 | 12.2 | 15.6 | 0.00 | 0.00 | 0.00 | 65 | 1007.6 |
| 20260503215924 | 49 | 204 | 13.0 | 18.2 | 0.00 | 0.00 | 0.00 | 66 | 1007.7 |
| 20260503215424 | 49 | 207 | 13.0 | 18.2 | 0.00 | 0.00 | 0.00 | 65 | 1007.7 |
| 20260503214924 | 49 | 202 | 12.2 | 17.4 | 0.00 | 0.00 | 0.00 | 67 | 1007.7 |
| 20260503214426 | 49 | 190 | 12.2 | 17.4 | 0.00 | 0.00 | 0.00 | 68 | 1007.7 |
| 20260503213922 | 49 | 0 | 12.2 | 17.4 | 0.00 | 0.00 | 0.00 | 67 | 1007.7 |
| 20260503212924 | 49 | 194 | 13.0 | 17.4 | 0.00 | 0.00 | 0.00 | 68 | 1007.8 |
| 20260503212422 | 49 | 192 | 13.0 | 16.5 | 0.00 | 0.00 | 0.00 | 66 | 1007.8 |
| 20260503211922 | 49 | 211 | 13.9 | 17.4 | 0.00 | 0.00 | 0.00 | 67 | 1007.8 |
| 20260503211423 | 49 | 217 | 14.8 | 18.2 | 0.00 | 0.00 | 0.00 | 65 | 1007.8 |
| 20260503210923 | 49 | 0 | 13.0 | 18.2 | 0.00 | 0.00 | 0.00 | 65 | 1007.8 |
| 20260503210422 | 49 | 219 | 12.2 | 17.4 | 0.00 | 0.00 | 0.00 | 66 | 1007.9 |
| 20260503205923 | 49 | 196 | 12.2 | 15.6 | 0.00 | 0.00 | 0.00 | 66 | 1008.0 |
| 20260503204921 | 49 | 222 | 13.0 | 18.2 | 0.00 | 0.00 | 0.00 | 66 | 1008.1 |
| 20260503204415 | 49 | 198 | 12.2 | 18.2 | 0.00 | 0.00 | 0.00 | 65 | 1008.2 |
| 20260503203402 | 49 | 0 | 12.2 | 17.4 | 0.00 | 0.00 | 0.00 | 65 | 1008.2 |
| 20260503202856 | 49 | 204 | 13.0 | 19.1 | 0.00 | 0.00 | 0.00 | 64 | 1008.3 |
| 20260503202354 | 49 | 191 | 13.0 | 19.1 | 0.00 | 0.00 | 0.00 | 63 | 1008.3 |
| 20260503201852 | 49 | 176 | 13.0 | 17.4 | 0.00 | 0.00 | 0.00 | 67 | 1008.4 |
| 20260503201351 | 49 | 197 | 13.0 | 17.4 | 0.00 | 0.00 | 0.00 | 64 | 1008.4 |
| 20260503200853 | 49 | 0 | 13.0 | 16.5 | 0.00 | 0.00 | 0.00 | 63 | 1008.4 |
| 20260503200351 | 49 | 181 | 14.8 | 20.0 | 0.00 | 0.00 | 0.00 | 63 | 1008.4 |
| 20260503195850 | 49 | 209 | 15.6 | 20.9 | 0.00 | 0.00 | 0.00 | 61 | 1008.5 |
| 20260503195351 | 49 | 234 | 14.8 | 20.9 | 0.00 | 0.00 | 0.00 | 60 | 1008.5 |
| 20260503194850 | 49 | 187 | 13.9 | 19.1 | 0.00 | 0.00 | 0.00 | 60 | 1008.6 |
| 20260503193849 | 49 | 196 | 14.8 | 20.9 | 0.00 | 0.00 | 0.00 | 61 | 1008.9 |
| 20260503193350 | 49 | 178 | 15.6 | 20.9 | 0.00 | 0.00 | 0.00 | 61 | 1008.9 |
| 20260503192850 | 49 | 202 | 16.5 | 21.7 | 0.00 | 0.00 | 0.00 | 59 | 1008.9 |
| 20260503191849 | 49 | 197 | 16.5 | 21.7 | 0.00 | 0.00 | 0.00 | 61 | 1009.1 |
| 20260503191342 | 49 | 175 | 15.6 | 20.9 | 0.00 | 0.00 | 0.00 | 61 | 1009.1 |
| 20260503190837 | 49 | 203 | 15.6 | 21.7 | 0.00 | 0.00 | 0.00 | 58 | 1009.0 |
| 20260503190329 | 49 | 205 | 16.5 | 21.7 | 0.00 | 0.00 | 0.00 | 61 | 1009.1 |
| 20260503185823 | 48 | 0 | 15.6 | 20.0 | 0.00 | 0.00 | 0.00 | 61 | 1009.1 |
| 20260503185318 | 49 | 209 | 13.9 | 20.0 | 0.00 | 0.00 | 0.00 | 57 | 1009.1 |
| 20260503184811 | 49 | 0 | 13.0 | 20.0 | 0.00 | 0.00 | 0.00 | 59 | 1009.1 |
| 20260503184306 | 49 | 200 | 11.3 | 17.4 | 0.00 | 0.00 | 0.00 | 57 | 1009.1 |
| 20260503183759 | 49 | 0 | 10.4 | 15.6 | 0.00 | 0.00 | 0.00 | 62 | 1009.1 |
| 20260503183253 | 49 | 0 | 10.4 | 19.1 | 0.00 | 0.00 | 0.00 | 64 | 1009.2 |
| 20260503182747 | 48 | 184 | 12.2 | 19.1 | 0.00 | 0.00 | 0.00 | 65 | 1009.3 |
| 20260503182241 | 48 | 208 | 12.2 | 17.4 | 0.00 | 0.00 | 0.00 | 64 | 1009.3 |
| 20260503181735 | 48 | 219 | 13.0 | 18.2 | 0.00 | 0.00 | 0.00 | 63 | 1009.4 |
| 20260503181229 | 49 | 190 | 13.9 | 20.0 | 0.00 | 0.00 | 0.00 | 56 | 1009.3 |
| 20260503180723 | 49 | 213 | 13.9 | 20.0 | 0.00 | 0.00 | 0.00 | 55 | 1009.3 |
| 20260503180224 | 49 | 220 | 11.3 | 18.2 | 0.00 | 0.00 | 0.00 | 62 | 1009.3 |
| 20260503175724 | 49 | 196 | 10.4 | 16.5 | 0.00 | 0.00 | 0.00 | 62 | 1009.4 |
| 20260503175227 | 50 | 173 | 10.4 | 17.4 | 0.00 | 0.00 | 0.00 | 60 | 1009.4 |
| 20260503174224 | 49 | 192 | 12.2 | 18.2 | 0.00 | 0.00 | 0.00 | 62 | 1009.7 |
| 20260503173721 | 49 | 0 | 12.2 | 18.2 | 0.00 | 0.00 | 0.00 | 55 | 1009.5 |
| 20260503173222 | 49 | 208 | 13.0 | 20.9 | 0.00 | 0.00 | 0.00 | 56 | 1009.7 |
| 20260503172720 | 48 | 199 | 13.0 | 20.9 | 0.00 | 0.00 | 0.00 | 56 | 1009.7 |
| 20260503172221 | 48 | 213 | 13.0 | 21.7 | 0.00 | 0.00 | 0.00 | 60 | 1009.7 |
| 20260503171720 | 49 | 193 | 11.3 | 21.7 | 0.00 | 0.00 | 0.00 | 60 | 1009.7 |
| 20260503171220 | 49 | 205 | 11.3 | 18.2 | 0.00 | 0.00 | 0.00 | 63 | 1009.7 |
| 20260503170719 | 49 | 233 | 12.2 | 18.2 | 0.00 | 0.00 | 0.00 | 64 | 1009.8 |
| 20260503170218 | 49 | 169 | 12.2 | 18.2 | 0.00 | 0.00 | 0.00 | 61 | 1009.9 |
| 20260503160144 | 52 | 217 | 4.3 | 10.4 | 0.00 | 0.00 | 0.00 | 42 | 1010.7 |
| 20260503150546 | 0 | 0.0 | 0.0 | 0.00 | 0.00 | 0.00 | 1011.4 | ||
| 20260503131151 | 0 | 0.0 | 0.0 | 0.00 | 0.00 | 0.00 | 1012.1 | ||
| 20260503130644 | 0 | 0.0 | 0.0 | 0.00 | 0.00 | 0.00 | 1012.1 | ||
| 20260503110129 | 0 | 0.0 | 0.0 | 0.00 | 0.00 | 0.00 | 1011.7 | ||
| 20260503100225 | 0 | 0.0 | 0.0 | 0.00 | 0.00 | 0.00 | 1011.5 | ||
| 20260503081315 | 39 | 279 | 0.0 | 0.0 | 0.00 | 0.00 | 0.00 | 85 | 1011.9 |
| 20260503080815 | 39 | 279 | 0.0 | 0.0 | 0.00 | 0.00 | 0.00 | 85 | 1011.9 |
| 20260503080315 | 39 | 279 | 0.0 | 0.0 | 0.00 | 0.00 | 0.00 | 85 | 1011.9 |
| 20260503072312 | 39 | 279 | 0.0 | 0.0 | 0.00 | 0.00 | 0.00 | 85 | 1011.8 |
| 20260503071811 | 39 | 279 | 0.0 | 0.0 | 0.00 | 0.00 | 0.00 | 85 | 1011.9 |
| 20260503071311 | 39 | 279 | 0.0 | 0.0 | 0.00 | 0.00 | 0.00 | 85 | 1011.8 |
| 20260503070813 | 40 | 279 | 0.0 | 0.0 | 0.00 | 0.00 | 0.00 | 85 | 1011.8 |
| 20260503070308 | 40 | 279 | 0.0 | 0.0 | 0.00 | 0.00 | 0.00 | 85 | 1011.8 |
| 20260503060256 | 40 | 279 | 0.0 | 0.0 | 0.00 | 0.00 | 0.00 | 85 | 1012.0 |
| 20260503054251 | 40 | 279 | 0.0 | 0.0 | 0.00 | 0.00 | 0.00 | 85 | 1012.0 |
| 20260503053743 | 40 | 279 | 0.0 | 0.0 | 0.00 | 0.00 | 0.00 | 85 | 1012.0 |
| 20260503053236 | 40 | 279 | 0.0 | 0.0 | 0.00 | 0.00 | 0.00 | 85 | 1012.0 |
| 20260503052730 | 40 | 279 | 0.0 | 0.0 | 0.00 | 0.00 | 0.00 | 85 | 1012.1 |
| 20260503052224 | 40 | 279 | 0.0 | 0.0 | 0.00 | 0.00 | 0.00 | 85 | 1012.1 |
| 20260503051718 | 40 | 279 | 0.0 | 0.0 | 0.00 | 0.00 | 0.00 | 84 | 1012.2 |
| 20260503051213 | 41 | 279 | 0.0 | 0.0 | 0.00 | 0.00 | 0.00 | 84 | 1012.2 |
| 20260503050706 | 41 | 279 | 0.0 | 0.0 | 0.00 | 0.00 | 0.00 | 84 | 1012.2 |
| 20260503050201 | 41 | 279 | 0.0 | 0.0 | 0.00 | 0.00 | 0.00 | 84 | 1012.2 |
| 20260503044642 | 41 | 279 | 0.0 | 0.0 | 0.00 | 0.00 | 0.00 | 83 | 1012.3 |
| 20260503044137 | 41 | 275 | 0.0 | 0.0 | 0.00 | 0.00 | 0.00 | 83 | 1012.3 |
| 20260503043630 | 41 | 275 | 0.0 | 0.0 | 0.00 | 0.00 | 0.00 | 83 | 1012.4 |
| 20260503042619 | 41 | 251 | 0.0 | 0.9 | 0.00 | 0.00 | 0.00 | 83 | 1012.3 |
| 20260503042112 | 42 | 251 | 0.0 | 0.9 | 0.00 | 0.00 | 0.00 | 83 | 1012.4 |
| 20260503041606 | 42 | 251 | 0.0 | 0.0 | 0.00 | 0.00 | 0.00 | 82 | 1012.4 |
| 20260503041100 | 42 | 251 | 0.0 | 0.0 | 0.00 | 0.00 | 0.00 | 82 | 1012.4 |
| 20260503034530 | 42 | 252 | 0.0 | 6.1 | 0.00 | 0.00 | 0.00 | 82 | 1012.5 |
| 20260503033518 | 42 | 219 | 0.0 | 1.7 | 0.00 | 0.00 | 0.00 | 82 | 1012.5 |
| 20260503033013 | 42 | 219 | 0.0 | 0.0 | 0.00 | 0.00 | 0.00 | 82 | 1012.6 |
| 20260503032506 | 43 | 219 | 0.9 | 3.5 | 0.00 | 0.00 | 0.00 | 82 | 1012.6 |
| 20260503031455 | 43 | 219 | 0.0 | 0.9 | 0.00 | 0.00 | 0.00 | 82 | 1012.6 |
| 20260503025937 | 43 | 219 | 1.7 | 3.5 | 0.00 | 0.00 | 0.00 | 83 | 1012.8 |
| 20260503024419 | 43 | 238 | 2.6 | 5.2 | 0.00 | 0.00 | 0.00 | 85 | 1012.8 |
| 20260503023912 | 43 | 230 | 3.5 | 7.0 | 0.00 | 0.00 | 0.00 | 86 | 1012.9 |
| 20260503023406 | 43 | 223 | 5.2 | 7.8 | 0.00 | 0.00 | 0.00 | 86 | 1012.9 |
| 20260503022900 | 43 | 193 | 6.1 | 7.8 | 0.00 | 0.00 | 0.00 | 86 | 1012.9 |
| 20260503022354 | 43 | 205 | 6.1 | 8.7 | 0.00 | 0.00 | 0.00 | 86 | 1012.9 |
| 20260503021342 | 43 | 187 | 6.1 | 8.7 | 0.00 | 0.00 | 0.00 | 86 | 1013.0 |
| 20260503020836 | 43 | 198 | 6.1 | 7.8 | 0.00 | 0.00 | 0.00 | 86 | 1013.1 |
| 20260503020330 | 43 | 215 | 6.1 | 7.8 | 0.00 | 0.00 | 0.00 | 86 | 1013.1 |
| 20260503015824 | 43 | 0 | 6.1 | 7.8 | 0.00 | 0.00 | 0.00 | 86 | 1013.1 |
| 20260503014814 | 43 | 195 | 6.1 | 8.7 | 0.00 | 0.00 | 0.00 | 86 | 1013.2 |
| 20260503014306 | 43 | 188 | 6.1 | 8.7 | 0.00 | 0.00 | 0.00 | 85 | 1013.2 |
| 20260503013805 | 43 | 196 | 6.1 | 9.6 | 0.00 | 0.00 | 0.00 | 85 | 1013.2 |
| 20260503013255 | 43 | 200 | 7.0 | 9.6 | 0.00 | 0.00 | 0.00 | 85 | 1013.2 |
| 20260503012242 | 43 | 192 | 7.0 | 11.3 | 0.00 | 0.00 | 0.00 | 84 | 1013.2 |
| 20260503011736 | 44 | 0 | 7.8 | 11.3 | 0.00 | 0.00 | 0.00 | 84 | 1013.1 |
| 20260503010725 | 44 | 211 | 8.7 | 11.3 | 0.00 | 0.00 | 0.00 | 83 | 1013.1 |
| 20260503010218 | 44 | 201 | 8.7 | 12.2 | 0.00 | 0.00 | 0.00 | 84 | 1013.1 |
| 20260503005712 | 44 | 219 | 8.7 | 12.2 | 0.00 | 0.00 | 0.00 | 83 | 1013.0 |
| 20260503005207 | 44 | 203 | 7.8 | 11.3 | 0.00 | 0.00 | 0.00 | 83 | 1013.0 |
| 20260503004700 | 44 | 186 | 7.8 | 10.4 | 0.00 | 0.00 | 0.00 | 83 | 1012.9 |
| 20260503003648 | 43 | 196 | 7.0 | 8.7 | 0.00 | 0.00 | 0.00 | 83 | 1012.9 |
| 20260503002640 | 44 | 0 | 5.2 | 8.7 | 0.00 | 0.00 | 0.00 | 84 | 1012.8 |
| 20260503002141 | 44 | 204 | 5.2 | 8.7 | 0.00 | 0.00 | 0.00 | 83 | 1012.8 |
| 20260503001640 | 43 | 237 | 6.1 | 10.4 | 0.00 | 0.00 | 0.00 | 82 | 1012.7 |
| 20260503001140 | 43 | 172 | 7.8 | 10.4 | 0.00 | 0.00 | 0.00 | 83 | 1012.7 |
| 20260503000642 | 44 | 0 | 7.8 | 10.4 | 0.00 | 0.00 | 0.00 | 84 | 1012.7 |
| 20260503000140 | 44 | 0 | 7.8 | 11.3 | 0.00 | 0.00 | 0.00 | 84 | 1012.7 |
| 20260502235640 | 44 | 217 | 7.0 | 11.3 | 0.00 | 0.00 | 0.00 | 84 | 1012.7 |
| 20260502234640 | 44 | 212 | 7.0 | 8.7 | 0.00 | 0.00 | 0.00 | 85 | 1012.8 |
| 20260502234141 | 44 | 0 | 7.0 | 9.6 | 0.00 | 0.00 | 0.00 | 84 | 1012.7 |
| 20260502233140 | 44 | 214 | 7.0 | 10.4 | 0.00 | 0.00 | 0.00 | 84 | 1012.7 |
| 20260502232641 | 44 | 200 | 7.0 | 9.6 | 0.00 | 0.00 | 0.00 | 84 | 1012.7 |
| 20260502232140 | 44 | 211 | 7.0 | 9.6 | 0.00 | 0.00 | 0.00 | 83 | 1012.7 |
| 20260502231640 | 44 | 0 | 7.0 | 9.6 | 0.00 | 0.00 | 0.00 | 83 | 1012.7 |
| 20260502231141 | 44 | 213 | 5.2 | 9.6 | 0.00 | 0.00 | 0.00 | 81 | 1012.7 |
| 20260502230640 | 44 | 205 | 3.5 | 7.8 | 0.00 | 0.00 | 0.00 | 79 | 1012.7 |
| 20260502230140 | 44 | 217 | 4.3 | 7.8 | 0.00 | 0.00 | 0.00 | 78 | 1012.7 |
| 20260502225141 | 44 | 210 | 5.2 | 8.7 | 0.00 | 0.00 | 0.00 | 77 | 1012.6 |
| 20260502224640 | 44 | 193 | 4.3 | 8.7 | 0.00 | 0.00 | 0.00 | 77 | 1012.6 |
| 20260502224141 | 44 | 227 | 4.3 | 7.8 | 0.00 | 0.00 | 0.00 | 77 | 1012.5 |
| 20260502223139 | 44 | 234 | 7.8 | 10.4 | 0.00 | 0.00 | 0.00 | 78 | 1012.5 |